Location: Rio Tanui
(39.9167°N, 8.5167°E)
Time: 16:07:20
(UTC+00:00)

Meteor 2-2 Rocket - Pass Details

Date: 18 June 2024
Orbit: 851 x 928 km, 81.3° (Epoch: 18 July)

Event Time Altitude Azimuth Distance (km) Brightness Sun altitude
Rises 01:28:19 0° 8° (N) 3,434 8.6 -20.7°
Reaches altitude 10° 01:31:59 10° 32° (NNE) 2,488 7.9 -20.3°
Maximum altitude 01:35:01 15° 65° (ENE) 2,166 7.1 -20.0°
Drops below altitude 10° 01:38:03 10° 99° (E) 2,479 6.9 -19.7°
Sets 01:41:39 0° 122° (ESE) 3,414 7.4 -19.3°
